| time (UTC) | temp C | wind direction | speed KPH | gust KPH | rain 1hr cm | rain 24hr cm | rain mn cm | humidity % | barometer mb |
| 20260503213302 | 17 | 323 | 0.0 | 0.0 | 0.00 | 0.00 | 0.00 | 48 | 1010.1 |
| 20260503212758 | 17 | 344 | 0.0 | 1.6 | 0.00 | 0.00 | 0.00 | 50 | 1010.2 |
| 20260503212256 | 17 | 5 | 1.6 | 1.6 | 0.00 | 0.00 | 0.00 | 49 | 1010.2 |
| 20260503211754 | 17 | 19 | 0.0 | 1.6 | 0.00 | 0.00 | 0.00 | 49 | 1010.6 |
| 20260503211250 | 16 | 45 | 0.0 | 0.0 | 0.00 | 0.00 | 0.00 | 51 | 1010.5 |
| 20260503210744 | 16 | 30 | 1.6 | 1.6 | 0.00 | 0.00 | 0.00 | 49 | 1010.6 |
| 20260503210242 | 16 | 339 | 0.0 | 0.0 | 0.00 | 0.00 | 0.00 | 52 | 1010.5 |
| 20260503205743 | 16 | 337 | 3.2 | 4.8 | 0.00 | 0.00 | 0.00 | 53 | 1010.7 |
| 20260503205240 | 15 | 358 | 0.0 | 1.6 | 0.00 | 0.00 | 0.00 | 66 | 1010.7 |
| 20260503204736 | 15 | 355 | 1.6 | 1.6 | 0.00 | 0.00 | 0.00 | 64 | 1010.8 |
| 20260503204234 | 15 | 327 | 1.6 | 1.6 | 0.00 | 0.00 | 0.00 | 64 | 1010.8 |
| 20260503203731 | 15 | 3 | 0.0 | 1.6 | 0.00 | 0.00 | 0.00 | 65 | 1010.7 |
| 20260503203228 | 14 | 9 | 1.6 | 1.6 | 0.00 | 0.00 | 0.00 | 67 | 1010.8 |
| 20260503202725 | 14 | 11 | 0.0 | 0.0 | 0.00 | 0.00 | 0.00 | 68 | 1010.9 |
| 20260503202223 | 14 | 7 | 3.2 | 3.2 | 0.00 | 0.00 | 0.00 | 67 | 1010.9 |
| 20260503201721 | 13 | 338 | 1.6 | 3.2 | 0.00 | 0.00 | 0.00 | 67 | 1011.1 |
| 20260503201218 | 13 | 355 | 0.0 | 0.0 | 0.00 | 0.00 | 0.00 | 69 | 1011.2 |
| 20260503200714 | 13 | 339 | 3.2 | 3.2 | 0.00 | 0.00 | 0.00 | 68 | 1011.2 |
| 20260503200211 | 13 | 3 | 3.2 | 3.2 | 0.00 | 0.00 | 0.00 | 67 | 1011.4 |
| 20260503195708 | 13 | 22 | 1.6 | 1.6 | 0.00 | 0.00 | 0.00 | 69 | 1011.4 |
| 20260503195205 | 13 | 73 | 3.2 | 3.2 | 0.00 | 0.00 | 0.00 | 69 | 1011.7 |
| 20260503194702 | 13 | 12 | 0.0 | 1.6 | 0.00 | 0.00 | 0.00 | 71 | 1011.7 |
| 20260503194157 | 12 | 56 | 0.0 | 1.6 | 0.00 | 0.00 | 0.00 | 72 | 1011.8 |
| 20260503193654 | 12 | 348 | 1.6 | 1.6 | 0.00 | 0.00 | 0.00 | 71 | 1011.9 |
| 20260503193150 | 12 | 18 | 1.6 | 1.6 | 0.00 | 0.00 | 0.00 | 73 | 1012.1 |
| 20260503192645 | 12 | 11 | 1.6 | 1.6 | 0.00 | 0.00 | 0.00 | 76 | 1012.1 |
| 20260503192141 | 11 | 38 | 1.6 | 3.2 | 0.00 | 0.00 | 0.00 | 75 | 1012.2 |
| 20260503191638 | 11 | 358 | 1.6 | 1.6 | 0.00 | 0.00 | 0.00 | 78 | 1012.2 |
| 20260503191135 | 11 | 27 | 0.0 | 1.6 | 0.00 | 0.00 | 0.00 | 79 | 1012.5 |
| 20260503190632 | 11 | 1 | 0.0 | 1.6 | 0.00 | 0.00 | 0.00 | 81 | 1012.4 |
| 20260503190129 | 10 | 71 | 1.6 | 1.6 | 0.00 | 0.00 | 0.00 | 82 | 1012.5 |
| 20260503185626 | 10 | 27 | 1.6 | 1.6 | 0.00 | 0.00 | 0.00 | 83 | 1012.6 |
| 20260503185121 | 10 | 16 | 1.6 | 3.2 | 0.00 | 0.00 | 0.00 | 83 | 1012.9 |
| 20260503184616 | 10 | 10 | 3.2 | 3.2 | 0.00 | 0.00 | 0.00 | 84 | 1013.2 |
| 20260503184113 | 10 | 3 | 1.6 | 1.6 | 0.00 | 0.00 | 0.00 | 82 | 1013.5 |
| 20260503183610 | 10 | 3 | 0.0 | 1.6 | 0.00 | 0.00 | 0.00 | 80 | 1013.5 |
| 20260503183107 | 10 | 42 | 3.2 | 3.2 | 0.00 | 0.00 | 0.00 | 80 | 1013.9 |
| 20260503182605 | 10 | 8 | 0.0 | 0.0 | 0.00 | 0.00 | 0.00 | 83 | 1014.5 |
| 20260503182103 | 10 | 8 | 3.2 | 3.2 | 0.00 | 0.00 | 0.00 | 83 | 1014.5 |
| 20260503181600 | 10 | 57 | 0.0 | 1.6 | 0.00 | 0.00 | 0.00 | 84 | 1014.7 |
| 20260503181056 | 10 | 354 | 0.0 | 0.0 | 0.00 | 0.00 | 0.00 | 84 | 1014.6 |
| 20260503180553 | 10 | 12 | 0.0 | 0.0 | 0.00 | 0.00 | 0.00 | 84 | 1015.0 |
| 20260503180051 | 10 | 1 | 0.0 | 0.0 | 0.00 | 0.00 | 0.00 | 83 | 1015.1 |
| 20260503175548 | 10 | 11 | 0.0 | 0.0 | 0.00 | 0.00 | 0.00 | 82 | 1015.2 |
| 20260503175045 | 10 | 11 | 0.0 | 1.6 | 0.00 | 0.00 | 0.00 | 82 | 1015.2 |
| 20260503174542 | 10 | 33 | 0.0 | 0.0 | 0.00 | 0.00 | 0.00 | 82 | 1015.2 |
| 20260503174038 | 10 | 328 | 0.0 | 0.0 | 0.00 | 0.00 | 0.00 | 80 | 1015.6 |
| 20260503173533 | 11 | 289 | 0.0 | 1.6 | 0.00 | 0.00 | 0.00 | 79 | 1015.5 |
| 20260503173030 | 12 | 325 | 0.0 | 0.0 | 0.00 | 0.00 | 0.00 | 74 | 1015.5 |
| 20260503172528 | 12 | 328 | 0.0 | 0.0 | 0.00 | 0.00 | 0.00 | 68 | 1015.6 |
| 20260503172024 | 12 | 355 | 1.6 | 1.6 | 0.00 | 0.00 | 0.00 | 65 | 1015.4 |
| 20260503171521 | 13 | 310 | 0.0 | 0.0 | 0.00 | 0.00 | 0.00 | 63 | 1015.4 |
| 20260503171018 | 13 | 352 | 0.0 | 0.0 | 0.00 | 0.00 | 0.00 | 63 | 1015.4 |
| 20260503170514 | 13 | 345 | 0.0 | 1.6 | 0.00 | 0.00 | 0.00 | 64 | 1015.6 |
| 20260503150907 | 14 | 335 | 0.0 | 0.0 | 0.00 | 0.00 | 0.00 | 55 | 1015.8 |
| 20260503150403 | 13 | 24 | 0.0 | 1.6 | 0.00 | 0.00 | 0.00 | 57 | 1015.8 |
| 20260503131257 | 10 | 358 | 0.0 | 0.0 | 0.00 | 0.00 | 0.00 | 60 | 1016.7 |
| 20260503130754 | 10 | 10 | 0.0 | 1.6 | 0.00 | 0.00 | 0.00 | 60 | 1016.8 |
| 20260503130251 | 10 | 339 | 0.0 | 0.0 | 0.00 | 0.00 | 0.00 | 61 | 1016.7 |
| 20260503120217 | 9 | 49 | 0.0 | 0.0 | 0.00 | 0.00 | 0.00 | 60 | 1016.7 |
| 20260503110639 | 6 | 316 | 0.0 | 0.0 | 0.00 | 0.00 | 0.00 | 72 | 1016.7 |
| 20260503110137 | 6 | 314 | 0.0 | 0.0 | 0.00 | 0.00 | 0.00 | 73 | 1016.5 |
| 20260503081446 | 4 | 317 | 0.0 | 0.0 | 0.00 | 0.00 | 0.00 | 76 | 1017.1 |
| 20260503080943 | 4 | 317 | 0.0 | 0.0 | 0.00 | 0.00 | 0.00 | 76 | 1017.3 |
| 20260503080440 | 4 | 317 | 0.0 | 0.0 | 0.00 | 0.00 | 0.00 | 76 | 1017.2 |
| 20260503072916 | 4 | 317 | 0.0 | 0.0 | 0.00 | 0.00 | 0.00 | 78 | 1017.0 |
| 20260503072414 | 4 | 317 | 0.0 | 0.0 | 0.00 | 0.00 | 0.00 | 78 | 1017.3 |
| 20260503071910 | 4 | 316 | 0.0 | 0.0 | 0.00 | 0.00 | 0.00 | 78 | 1017.1 |
| 20260503071408 | 4 | 316 | 0.0 | 0.0 | 0.00 | 0.00 | 0.00 | 78 | 1017.1 |
| 20260503070903 | 4 | 316 | 0.0 | 0.0 | 0.00 | 0.00 | 0.00 | 78 | 1017.2 |
| 20260503070401 | 4 | 316 | 0.0 | 0.0 | 0.00 | 0.00 | 0.00 | 78 | 1017.2 |
| 20260503060327 | 4 | 316 | 0.0 | 0.0 | 0.00 | 0.00 | 0.00 | 80 | 1018.1 |
| 20260503054814 | 4 | 316 | 0.0 | 0.0 | 0.00 | 0.00 | 0.00 | 79 | 1018.0 |
| 20260503054310 | 4 | 316 | 0.0 | 0.0 | 0.00 | 0.00 | 0.00 | 78 | 1017.9 |
| 20260503053808 | 4 | 316 | 0.0 | 0.0 | 0.00 | 0.00 | 0.00 | 78 | 1017.9 |
| 20260503053307 | 4 | 316 | 0.0 | 0.0 | 0.00 | 0.00 | 0.00 | 77 | 1018.0 |
| 20260503052803 | 4 | 316 | 0.0 | 0.0 | 0.00 | 0.00 | 0.00 | 78 | 1018.0 |
| 20260503052259 | 4 | 316 | 0.0 | 0.0 | 0.00 | 0.00 | 0.00 | 78 | 1018.1 |
| 20260503051754 | 4 | 316 | 0.0 | 0.0 | 0.00 | 0.00 | 0.00 | 78 | 1018.1 |
| 20260503051246 | 4 | 316 | 0.0 | 0.0 | 0.00 | 0.00 | 0.00 | 78 | 1018.1 |
| 20260503050742 | 4 | 316 | 0.0 | 0.0 | 0.00 | 0.00 | 0.00 | 78 | 1018.1 |
| 20260503050233 | 5 | 316 | 0.0 | 0.0 | 0.00 | 0.00 | 0.00 | 78 | 1018.2 |
| 20260503045731 | 4 | 316 | 0.0 | 0.0 | 0.00 | 0.00 | 0.00 | 78 | 1018.2 |
| 20260503045229 | 4 | 316 | 0.0 | 0.0 | 0.00 | 0.00 | 0.00 | 79 | 1018.1 |
| 20260503044724 | 4 | 316 | 0.0 | 0.0 | 0.00 | 0.00 | 0.00 | 78 | 1018.3 |
| 20260503044222 | 5 | 316 | 0.0 | 0.0 | 0.00 | 0.00 | 0.00 | 79 | 1018.3 |
| 20260503043719 | 4 | 316 | 0.0 | 0.0 | 0.00 | 0.00 | 0.00 | 79 | 1018.3 |
| 20260503043216 | 5 | 316 | 0.0 | 0.0 | 0.00 | 0.00 | 0.00 | 79 | 1018.4 |
| 20260503042712 | 5 | 316 | 0.0 | 0.0 | 0.00 | 0.00 | 0.00 | 79 | 1018.4 |
| 20260503042209 | 5 | 316 | 0.0 | 0.0 | 0.00 | 0.00 | 0.00 | 78 | 1018.4 |
| 20260503041705 | 5 | 316 | 0.0 | 0.0 | 0.00 | 0.00 | 0.00 | 77 | 1018.3 |
| 20260503041203 | 5 | 316 | 0.0 | 0.0 | 0.00 | 0.00 | 0.00 | 77 | 1018.4 |
| 20260503040700 | 5 | 316 | 0.0 | 0.0 | 0.00 | 0.00 | 0.00 | 78 | 1018.4 |
| 20260503040157 | 5 | 316 | 0.0 | 0.0 | 0.00 | 0.00 | 0.00 | 78 | 1018.7 |
| 20260503035654 | 5 | 316 | 0.0 | 0.0 | 0.00 | 0.00 | 0.00 | 78 | 1018.5 |
| 20260503035151 | 5 | 316 | 0.0 | 0.0 | 0.00 | 0.00 | 0.00 | 78 | 1018.4 |
| 20260503034649 | 5 | 316 | 0.0 | 0.0 | 0.00 | 0.00 | 0.00 | 77 | 1018.8 |
| 20260503034145 | 5 | 316 | 0.0 | 0.0 | 0.00 | 0.00 | 0.00 | 77 | 1018.5 |
| 20260503033643 | 5 | 316 | 0.0 | 0.0 | 0.00 | 0.00 | 0.00 | 77 | 1018.7 |
| 20260503033140 | 5 | 316 | 0.0 | 0.0 | 0.00 | 0.00 | 0.00 | 77 | 1018.5 |
| 20260503032638 | 5 | 316 | 0.0 | 0.0 | 0.00 | 0.00 | 0.00 | 76 | 1018.4 |
| 20260503032137 | 5 | 316 | 0.0 | 0.0 | 0.00 | 0.00 | 0.00 | 77 | 1018.4 |
| 20260503031634 | 5 | 316 | 0.0 | 0.0 | 0.00 | 0.00 | 0.00 | 77 | 1018.5 |
| 20260503031132 | 5 | 316 | 0.0 | 0.0 | 0.00 | 0.00 | 0.00 | 77 | 1018.5 |
| 20260503030627 | 5 | 316 | 0.0 | 0.0 | 0.00 | 0.00 | 0.00 | 76 | 1018.5 |
| 20260503030124 | 5 | 316 | 0.0 | 0.0 | 0.00 | 0.00 | 0.00 | 75 | 1018.7 |
| 20260503025621 | 5 | 316 | 0.0 | 0.0 | 0.00 | 0.00 | 0.00 | 74 | 1018.8 |
| 20260503025119 | 5 | 316 | 0.0 | 0.0 | 0.00 | 0.00 | 0.00 | 74 | 1018.7 |
| 20260503024615 | 5 | 316 | 0.0 | 0.0 | 0.00 | 0.00 | 0.00 | 74 | 1018.7 |
| 20260503024112 | 5 | 316 | 0.0 | 0.0 | 0.00 | 0.00 | 0.00 | 74 | 1018.8 |
| 20260503023609 | 5 | 316 | 0.0 | 0.0 | 0.00 | 0.00 | 0.00 | 73 | 1018.8 |
| 20260503023107 | 5 | 316 | 0.0 | 0.0 | 0.00 | 0.00 | 0.00 | 73 | 1018.7 |
| 20260503022602 | 5 | 316 | 0.0 | 0.0 | 0.00 | 0.00 | 0.00 | 73 | 1018.5 |
| 20260503022057 | 5 | 316 | 0.0 | 0.0 | 0.00 | 0.00 | 0.00 | 74 | 1018.5 |
| 20260503021555 | 5 | 316 | 0.0 | 0.0 | 0.00 | 0.00 | 0.00 | 72 | 1018.8 |
| 20260503021051 | 6 | 316 | 0.0 | 0.0 | 0.00 | 0.00 | 0.00 | 71 | 1018.5 |
| 20260503020548 | 6 | 316 | 0.0 | 0.0 | 0.00 | 0.00 | 0.00 | 71 | 1018.5 |
| 20260503020045 | 6 | 316 | 0.0 | 0.0 | 0.00 | 0.00 | 0.00 | 70 | 1018.7 |
| 20260503015542 | 6 | 316 | 0.0 | 0.0 | 0.00 | 0.00 | 0.00 | 71 | 1018.7 |
| 20260503015039 | 6 | 316 | 0.0 | 0.0 | 0.00 | 0.00 | 0.00 | 71 | 1018.7 |
| 20260503014535 | 6 | 316 | 0.0 | 0.0 | 0.00 | 0.00 | 0.00 | 72 | 1018.5 |
| 20260503014033 | 6 | 316 | 0.0 | 0.0 | 0.00 | 0.00 | 0.00 | 72 | 1018.4 |
| 20260503013530 | 6 | 316 | 0.0 | 0.0 | 0.00 | 0.00 | 0.00 | 71 | 1018.4 |
| 20260503013028 | 6 | 316 | 0.0 | 0.0 | 0.00 | 0.00 | 0.00 | 71 | 1018.3 |
| 20260503012525 | 6 | 316 | 0.0 | 0.0 | 0.00 | 0.00 | 0.00 | 70 | 1018.3 |
| 20260503012021 | 6 | 316 | 0.0 | 0.0 | 0.00 | 0.00 | 0.00 | 69 | 1018.5 |
| 20260503011518 | 6 | 316 | 0.0 | 0.0 | 0.00 | 0.00 | 0.00 | 71 | 1018.3 |
| 20260503011015 | 7 | 316 | 0.0 | 0.0 | 0.00 | 0.00 | 0.00 | 66 | 1018.4 |
| 20260503010511 | 7 | 316 | 0.0 | 0.0 | 0.00 | 0.00 | 0.00 | 65 | 1018.4 |
| 20260503010009 | 7 | 316 | 0.0 | 0.0 | 0.00 | 0.00 | 0.00 | 64 | 1018.4 |
| 20260503005506 | 7 | 316 | 0.0 | 0.0 | 0.00 | 0.00 | 0.00 | 63 | 1018.4 |
| 20260503005003 | 7 | 316 | 0.0 | 0.0 | 0.00 | 0.00 | 0.00 | 64 | 1018.5 |
| 20260503004459 | 7 | 316 | 0.0 | 0.0 | 0.00 | 0.00 | 0.00 | 64 | 1018.5 |
| 20260503003957 | 8 | 316 | 0.0 | 0.0 | 0.00 | 0.00 | 0.00 | 64 | 1018.5 |
| 20260503003454 | 8 | 316 | 0.0 | 0.0 | 0.00 | 0.00 | 0.00 | 61 | 1018.4 |
| 20260503002951 | 8 | 316 | 0.0 | 0.0 | 0.00 | 0.00 | 0.00 | 63 | 1018.5 |
| 20260503002448 | 8 | 316 | 0.0 | 0.0 | 0.00 | 0.00 | 0.00 | 63 | 1018.5 |
| 20260503001944 | 8 | 316 | 0.0 | 0.0 | 0.00 | 0.00 | 0.00 | 64 | 1018.4 |
| 20260503001441 | 8 | 316 | 0.0 | 0.0 | 0.00 | 0.00 | 0.00 | 59 | 1018.7 |
| 20260503000938 | 8 | 316 | 0.0 | 0.0 | 0.00 | 0.00 | 0.00 | 58 | 1018.7 |
| 20260503000437 | 8 | 316 | 0.0 | 0.0 | 0.00 | 0.00 | 0.00 | 59 | 1018.7 |
| 20260502235933 | 9 | 316 | 0.0 | 0.0 | 0.00 | 0.00 | 0.00 | 58 | 1018.7 |
| 20260502235429 | 9 | 316 | 0.0 | 0.0 | 0.00 | 0.00 | 0.00 | 57 | 1018.5 |
| 20260502234927 | 10 | 316 | 0.0 | 0.0 | 0.00 | 0.00 | 0.00 | 55 | 1018.8 |
| 20260502234423 | 10 | 316 | 0.0 | 0.0 | 0.00 | 0.00 | 0.00 | 58 | 1019.0 |
| 20260502233920 | 10 | 316 | 0.0 | 0.0 | 0.00 | 0.00 | 0.00 | 58 | 1018.9 |
| 20260502233415 | 10 | 316 | 0.0 | 0.0 | 0.00 | 0.00 | 0.00 | 53 | 1018.9 |
| 20260502232913 | 10 | 316 | 0.0 | 0.0 | 0.00 | 0.00 | 0.00 | 49 | 1018.9 |
| 20260502232409 | 10 | 316 | 0.0 | 0.0 | 0.00 | 0.00 | 0.00 | 46 | 1018.8 |
| 20260502231906 | 10 | 344 | 0.0 | 0.0 | 0.00 | 0.00 | 0.00 | 47 | 1019.1 |
| 20260502231404 | 10 | 300 | 0.0 | 0.0 | 0.00 | 0.00 | 0.00 | 50 | 1019.0 |
| 20260502230901 | 10 | 331 | 0.0 | 0.0 | 0.00 | 0.00 | 0.00 | 54 | 1018.9 |
| 20260502230359 | 10 | 331 | 0.0 | 0.0 | 0.00 | 0.00 | 0.00 | 49 | 1018.9 |
| 20260502225856 | 10 | 329 | 0.0 | 0.0 | 0.00 | 0.00 | 0.00 | 50 | 1019.1 |
| 20260502225353 | 10 | 321 | 0.0 | 0.0 | 0.00 | 0.00 | 0.00 | 52 | 1018.9 |
| 20260502224850 | 10 | 321 | 0.0 | 0.0 | 0.00 | 0.00 | 0.00 | 46 | 1019.0 |
| 20260502224346 | 10 | 334 | 0.0 | 0.0 | 0.00 | 0.00 | 0.00 | 47 | 1019.1 |
| 20260502223844 | 10 | 335 | 0.0 | 0.0 | 0.00 | 0.00 | 0.00 | 47 | 1019.1 |
| 20260502223341 | 10 | 342 | 0.0 | 0.0 | 0.00 | 0.00 | 0.00 | 43 | 1019.0 |
| 20260502222838 | 10 | 323 | 0.0 | 0.0 | 0.00 | 0.00 | 0.00 | 49 | 1019.1 |
| 20260502222336 | 10 | 329 | 0.0 | 0.0 | 0.00 | 0.00 | 0.00 | 49 | 1019.1 |
| 20260502221832 | 10 | 333 | 0.0 | 0.0 | 0.00 | 0.00 | 0.00 | 45 | 1019.1 |
| 20260502221328 | 10 | 267 | 0.0 | 1.6 | 0.00 | 0.00 | 0.00 | 46 | 1019.3 |
| 20260502220826 | 10 | 324 | 0.0 | 0.0 | 0.00 | 0.00 | 0.00 | 46 | 1019.2 |
| 20260502220321 | 10 | 35 | 0.0 | 1.6 | 0.00 | 0.00 | 0.00 | 49 | 1019.5 |
| 20260502215817 | 10 | 317 | 0.0 | 0.0 | 0.00 | 0.00 | 0.00 | 52 | 1019.3 |
| 20260502215315 | 10 | 324 | 0.0 | 0.0 | 0.00 | 0.00 | 0.00 | 47 | 1019.3 |
| 20260502214812 | 10 | 334 | 0.0 | 0.0 | 0.00 | 0.00 | 0.00 | 49 | 1019.3 |
| 20260502214303 | 10 | 316 | 0.0 | 0.0 | 0.00 | 0.00 | 0.00 | 49 | 1019.4 |
| 20260502213800 | 10 | 349 | 0.0 | 0.0 | 0.00 | 0.00 | 0.00 | 49 | 1019.5 |